TimeAFT,TemperatureF,Dew PointF,Humidity,Sea Level PressureIn,VisibilityMPH,Wind Direction,Wind SpeedMPH,Gust SpeedMPH,PrecipitationIn,Events,Conditions,WindDirDegrees,DateUTC
12:20 AM,64.4,21.2,19,29.85,5.0,ENE,2.3,-,N/A,,Clear,60,2013-10-12 19:50:00
1:20 AM,60.8,19.4,20,29.87,5.6,Variable,1.2,-,N/A,,Clear,0,2013-10-12 20:50:00
2:20 AM,60.8,19.4,20,29.87,5.6,Variable,3.5,-,N/A,,Clear,0,2013-10-12 21:50:00
3:20 AM,59.0,19.4,22,29.88,5.6,SE,2.3,-,N/A,,Clear,130,2013-10-12 22:50:00
4:20 AM,59.0,21.2,23,29.90,5.0,SE,3.5,-,N/A,,Clear,130,2013-10-12 23:50:00
5:20 AM,57.2,21.2,25,29.92,5.0,East,1.2,-,N/A,,Clear,100,2013-10-13 00:50:00
6:20 AM,55.4,19.4,25,29.96,5.0,NE,3.5,-,N/A,,Clear,40,2013-10-13 01:50:00
7:20 AM,57.2,19.4,23,29.96,5.6,NE,3.5,-,N/A,,Clear,50,2013-10-13 02:50:00
8:20 AM,64.4,21.2,19,29.94,5.6,Variable,3.5,-,N/A,,Clear,0,2013-10-13 03:50:00
9:20 AM,69.8,19.4,15,29.91,5.0,Variable,2.3,-,N/A,,Clear,0,2013-10-13 04:50:00
10:20 AM,73.4,21.2,14,29.89,5.0,Variable,2.3,-,N/A,,Clear,0,2013-10-13 05:50:00
11:20 AM,77.0,21.2,12,29.84,5.0,Variable,3.5,-,N/A,,Clear,0,2013-10-13 06:50:00
12:20 PM,80.6,21.2,11,29.79,5.6,Variable,3.5,-,N/A,,Clear,0,2013-10-13 07:50:00
1:20 PM,82.4,23.0,11,29.74,5.6,West,6.9,-,N/A,,Clear,260,2013-10-13 08:50:00
2:20 PM,84.2,23.0,11,29.72,5.6,West,8.1,15.0,N/A,,Clear,270,2013-10-13 09:50:00
3:20 PM,84.2,26.6,12,29.71,5.6,West,12.7,17.3,N/A,,Clear,260,2013-10-13 10:50:00
4:20 PM,84.2,28.4,13,29.71,5.6,West,13.8,-,N/A,,Clear,270,2013-10-13 11:50:00
5:20 PM,82.4,30.2,15,29.73,6.2,West,11.5,-,N/A,,Clear,260,2013-10-13 12:50:00
6:20 PM,78.8,30.2,17,29.75,6.2,West,10.4,-,N/A,,Clear,270,2013-10-13 13:50:00
7:20 PM,77.0,30.2,18,29.80,6.2,West,10.4,-,N/A,,Clear,270,2013-10-13 14:50:00
8:20 PM,75.2,32.0,21,29.81,6.2,West,11.5,-,N/A,,Clear,270,2013-10-13 15:50:00
9:20 PM,71.6,32.0,23,29.83,6.2,WSW,11.5,-,N/A,,Clear,240,2013-10-13 16:50:00
10:20 PM,69.8,32.0,25,29.84,6.2,WSW,8.1,-,N/A,,Clear,240,2013-10-13 17:50:00
11:20 PM,68.0,28.4,23,29.86,6.2,East,2.3,-,N/A,,Clear,100,2013-10-13 18:50:00